Tracking 19638 objects as of 20-May-2019
HD Live streaming from Space Station
objects crossing your sky now

SATCOM 3

Track SATCOM 3 now!
SATCOM 3 is classified as:


NORAD ID: 11635
Int'l Code: 1979-101A
Perigee: 8,221.9 km
Apogee: 35,600.4 km
Inclination: 9.9 °
Period: 788.9 minutes
Semi major axis: 28282 km
RCS: 6.1128 m2 (large)
Launch date: December 7, 1979
Source: United States (US)
Launch site: AIR FORCE EASTERN TEST RANGE (AFETR)
aabbcc
Your satellite tracking list
Your tracking list is empty




NASA's NSSDC Master Catalog

Two Line Element Set (TLE):
1 11635U 79101A   19139.60614888 -.00000141  00000-0  00000+0 0  9994
2 11635   9.9159 341.9790 4840238 333.2483 248.0501  1.82529800176750
Source of the keplerian elements: AFSPC